Location: Rooftop Observatory
(39.0308°N, 87.1711°W)
Time: 06:54:55
(UTC-06:00)

Daily predictions for brighter satellites

Satellite Brightness Start Highest point End
(mag) Time Altitude Azimuth Time Altitude Azimuth Time Altitude Azimuth
Cosmos 1464 Rocket 4.4 17:56:13 10° N 18:01:52 37° ENE 18:07:30 10° SE
COSMO-SKYMED 1 2.7 17:57:57 10° N 18:02:19 84° WNW 18:06:39 10° SSW
ERS-2 3.4 17:59:58 10° ESE 18:02:50 22° ENE 18:05:42 10° NNE
Cosmos 2056 Rocket 4.3 18:00:28 10° NNW 18:05:49 61° WSW 18:11:09 10° S
Meteor 1-14 Rocket 4.4 18:01:15 10° S 18:06:50 54° E 18:12:34 10° NNE
BREEZE-M R/B 4.3 18:05:12 10° NNW 18:07:19 25° NNE 18:11:44 10° E
MOS 1-B Rocket 4.0 18:02:28 10° SSE 18:08:55 84° ENE 18:14:42 10° NNW
Cosmos 158 Rocket 3.9 18:04:30 10° S 18:09:17 56° ESE 18:14:04 10° NNE
Iridium 4 Rocket 4.0 18:05:28 10° NNE 18:09:42 30° E 18:13:36 10° SE
CZ-4 R/B 3.3 18:06:51 10° SSW 18:10:36 36° W 18:14:18 10° NNW
Cosmos 1452 Rocket 3.6 18:06:45 10° N 18:11:57 59° ENE 18:17:07 10° SSE
BREEZE-M DEB (TANK) 3.4 18:11:05 10° NNW 18:12:50 17° NNE 18:14:37 11° ENE
ATLAS 3B R/B 4.4 18:06:52 10° WSW 18:13:05 30° NW 18:19:07 10° NNE
Cosmos 1812 2.7 18:10:31 10° N 18:14:23 64° E 18:18:12 10° SSE
Cosmos 1048 Rocket 4.4 18:10:35 10° S 18:15:36 43° ESE 18:20:35 10° NNE
SPOT 3 Rocket 3.5 18:12:59 10° SSE 18:18:09 73° ENE 18:23:22 10° N
Aureole 3 4.0 18:13:40 10° S 18:19:43 82° E 18:24:26 10° N
Okean 3 3.3 18:19:49 10° N 18:24:00 69° E 18:28:09 10° SSE
Cosmos 2333 Rocket 4.5 18:19:22 10° NW 18:24:08 29° WSW 18:28:52 10° SSW
Cosmos 2082 4.4 18:18:48 10° SW 18:24:17 57° WNW 18:29:52 10° NNE
Cosmos 2263 Rocket 4.0 18:22:53 10° ESE 18:23:04 10° ESE 18:23:04 10° ESE
Cosmos 1674 Rocket 3.5 18:20:22 10° N 18:24:44 89° E 18:29:02 10° S
OAO 2 Rocket 3.9 18:21:29 10° WSW 18:26:13 45° SSE 18:29:58 15° E
Meteor 1-18 Rocket 4.2 18:24:34 10° N 18:30:07 62° ENE 18:35:35 10° SSE
Cosmos 405 4.4 18:27:18 10° SSW 18:30:38 41° WNW 18:34:00 10° N
Cosmos 1420 Rocket 4.0 18:26:18 10° NNW 18:31:35 72° ENE 18:36:52 10° SSE
Cosmos 1908 Rocket 3.5 18:27:48 10° S 18:32:14 72° E 18:36:42 10° NNE
Cosmos 921 Rocket 3.6 18:28:03 10° N 18:32:17 38° ENE 18:36:27 10° SE
Meteor 1-25 Rocket 4.2 18:32:01 10° S 18:37:33 89° E 18:43:09 10° N
Cosmos 2034 Rocket 4.1 18:31:51 10° N 18:38:06 55° E 18:44:18 10° SSE
Cosmos 1891 Rocket 4.4 18:32:57 10° N 18:39:09 66° E 18:45:10 10° SSE
Tiangong 2 2.3 18:36:58 10° W 18:39:57 38° SSW 18:42:17 15° SE
FREGAT/IRIS 2.4 18:37:35 10° SSE 18:40:30 65° ENE 18:43:28 10° N
EO 1 Del DPAF 4.0 18:40:07 10° N 18:43:52 54° WNW 18:47:35 10° SSW
Cosmos 1437 Rocket 2.9 18:40:22 10° S 18:44:18 53° E 18:48:18 10° NNE
Cosmos 2227 4.5 18:39:36 10° S 18:45:02 45° ESE 18:50:27 10° NE
Cosmos 44 Rocket 3.4 18:42:20 10° NNW 18:47:25 89° WSW 18:52:34 10° SSE
Meteor 1-11 Rocket 4.3 18:42:57 10° SSE 18:47:46 31° E 18:52:42 10° NNE
ARGOS Delta rocket 4.1 18:44:05 10° NNE 18:48:40 43° E 18:53:00 10° SSE
SeaSat 1 2.9 18:50:15 22° ESE 18:52:57 40° ENE 18:57:33 10° N
Gbstr 26 Del rocket 2.9 18:50:32 10° SSW 18:54:07 48° SE 18:55:12 36° E
USA 215 3.2 18:52:59 13° NE 18:58:53 71° SE 19:05:23 10° SW
Cosmos 1975 Rocket 3.0 18:55:58 10° N 19:00:23 61° E 19:04:48 10° SSE
Envisat 3.0 18:56:47 10° SSE 19:01:43 55° ENE 19:06:40 10° N
Cosmos 1939 Rocket 4.4 19:04:12 22° NE 19:04:12 22° NE 19:06:10 10° NNE
COSMOS 2455 3.3 18:58:04 10° S 19:03:31 37° ESE 19:05:36 29° ENE
Resurs 01 Rocket 2.3 19:06:02 33° NE 19:06:02 33° NE 19:09:33 10° N
HJ-1C 3.6 19:04:57 10° S 19:08:21 72° WSW 19:11:46 10° NNW
CZ-4C R/B 3.8 19:02:54 10° NNW 19:08:53 28° NE 19:10:42 25° ENE
Thor Agena Rocket 3.3 19:05:04 10° NNE 19:10:10 79° ESE 19:15:12 10° S
OE (NEXTSAT) 4.2 19:07:23 10° WSW 19:10:56 88° NNW 19:11:19 69° ENE
BREEZE-M DEB (TANK) 3.2 19:09:37 10° SSW 19:12:31 62° SE 19:15:23 28° ENE
Cosmos 1943 4.0 19:08:17 10° N 19:13:10 30° ENE 19:13:10 30° ENE
USA 32 4.4 19:09:08 10° SSW 19:14:18 64° W 19:19:31 10° N
Cosmos 1269 Rocket 4.3 19:09:09 10° SSW 19:14:24 71° WNW 19:19:42 10° NNE
Cosmos 494 Rocket 4.0 19:10:59 10° S 19:16:04 57° ESE 19:19:03 24° NE
Cosmos 1110 Rocket 4.1 19:12:57 10° N 19:18:09 53° ENE 19:19:14 45° ESE
USA 186 4.4 19:28:00 14° N 19:28:00 14° N 19:28:31 10° N
ATLAS CENTAUR R/B 3.5 19:24:55 10° N 19:26:06 15° NNE 19:26:06 15° NNE
SJ-6B 3.6 19:24:57 10° S 19:28:35 48° W 19:32:19 10° NNW
USA 267 4.1 19:30:04 31° NE 19:31:24 33° NNE 19:37:07 10° NNW
SL-16 R/B 3.8 19:27:00 10° NW 19:32:02 33° WSW 19:37:01 10° SSW
Tsikada Rocket 4.3 19:25:44 10° SSW 19:32:07 71° W 19:38:32 10° N
CENTAUR R/B 3.8 19:27:56 10° WSW 19:33:34 38° NW 19:39:58 10° NNE
Meteor 1-13 Rocket 4.3 19:40:05 10° NNW 19:45:37 74° W 19:49:04 23° S
Cosmos 1331 Rocket 3.9 19:44:46 10° NNW 19:50:04 88° WNW 19:50:04 88° WNW
Okean 2 Rocket 4.2 19:46:31 10° SSW 19:50:41 43° W 19:54:54 10° N
Cosmos 1603 3.7 19:45:16 10° NNW 19:50:55 75° WSW 19:52:03 56° S
Spot 2 Rocket 3.8 19:52:34 58° N 19:52:34 58° N 19:56:39 10° NNW
Geosat 4.1 19:54:24 59° N 19:55:11 71° WNW 20:00:10 10° SW
Cosmos 2263 Rocket 3.2 20:01:49 10° SSW 20:04:56 35° SSW 20:04:56 35° SSW
SeaSat 1 4.3 20:30:04 25° WSW 20:30:32 25° WSW 20:34:35 10° NW
USA 215 4.3 20:40:20 35° N 20:41:34 38° NNW 20:47:28 10° W
Resurs 01 Rocket 4.3 20:43:37 17° WNW 20:43:37 17° WNW 20:45:21 10° NW
COSMOS 2455 4.2 20:43:57 10° WSW 20:48:53 35° WNW 20:48:53 35° WNW
CZ-4C R/B 3.6 20:50:47 10° NW 20:55:55 50° NW 20:55:55 50° NW
